{"data":{"norad_id":63782,"epoch":"2026-09-19T16:50:57.236640Z","epoch_age_seconds":218839,"freshness":"STALE","line1":"1 63782U 25091H   26262.70205135  .00011284  00000+0  41877-3 0  9999","line2":"2 63782  43.0058  36.8693 0001951 292.0369  68.0275 15.27594055 78668","mean_motion":15.27594055,"eccentricity":0.0001951,"inclination_deg":43.0058,"raan_deg":36.8693,"arg_perigee_deg":292.0369,"mean_anomaly_deg":68.0275,"bstar":0.00041877,"rev_number":7866,"period_min":94.265881389542,"perigee_km":481.6684014396,"apogee_km":484.34561983255,"semimajor_km":6861.1440106361,"source":"CELESTRAK","updated_at":"2026-09-21T09:00:35.099166Z"}}